This is the latest recevied weather packets stored in our database for station/object KH6HHG. If no packets are shown the sender has not sent any weather packets the latest 10 day(s).
| Time | Temp. | Humidity | Pressure | Rain* | Wind** | Luminosity | Snow |
|---|---|---|---|---|---|---|---|
| 1778011598 | 24.44° C | 74% | 1013.4 hPa | 0 mm | - | - | - |
| 1778011298 | 24.44° C | 72% | 1013.5 hPa | 0 mm | - | - | - |
| 1778010998 | 25° C | 72% | 1013.5 hPa | 0 mm | - | - | - |
| 1778010698 | 25.56° C | 72% | 1013.5 hPa | 0 mm | - | - | - |
| 1778010398 | 25° C | 75% | 1013.4 hPa | 0 mm | - | - | - |
| 1778010098 | 24.44° C | 77% | 1013.5 hPa | 0 mm | - | - | - |
| 1778009798 | 23.89° C | 77% | 1013.5 hPa | 0 mm | - | - | - |
| 1778009498 | 24.44° C | 75% | 1013.5 hPa | 0 mm | - | - | - |
| 1778009198 | 24.44° C | 74% | 1013.5 hPa | 0 mm | - | - | - |
| 1778008898 | 25° C | 76% | 1013.5 hPa | 0 mm | - | - | - |
| 1778008598 | 24.44° C | 74% | 1013.5 hPa | 0 mm | - | - | - |
| 1778008298 | 23.89° C | 76% | 1013.5 hPa | 0 mm | - | - | - |
| 1778007998 | 23.89° C | 78% | 1013.5 hPa | 0 mm | - | - | - |
| 1778007699 | 23.33° C | 80% | 1013.5 hPa | 0 mm | - | - | - |
| 1778007399 | 22.78° C | 81% | 1013.5 hPa | 0 mm | - | - | - |
| 1778007099 | 22.78° C | 81% | 1013.4 hPa | 0 mm | - | - | - |
| 1778006799 | 22.78° C | 83% | 1013.4 hPa | 0 mm | - | - | - |
| 1778006499 | 22.78° C | 82% | 1013.4 hPa | 0 mm | - | - | - |
| 1778006199 | 22.78° C | 82% | 1013.3 hPa | 0 mm | - | - | - |
| 1778005899 | 22.78° C | 82% | 1013.3 hPa | 0 mm | - | - | - |
| 1778005599 | 22.78° C | 82% | 1013.3 hPa | 0 mm | - | - | - |
| 1778005299 | 22.78° C | 81% | 1013.2 hPa | 0 mm | - | - | - |
| 1778004999 | 22.78° C | 81% | 1013.2 hPa | 0 mm | - | - | - |
| 1778004699 | 22.78° C | 80% | 1013.2 hPa | 0 mm | - | - | - |
| 1778004399 | 22.78° C | 81% | 1013.1 hPa | 0 mm | - | - | - |
* Rain latest hour (hover to see other rain measurements)
** Current wind speed in m/s (hover to see current wind gust speed)